START_TIME,STEP,MOV.,M35,t_acc.,PL05,t_acc.,PL06,t_acc.,PL07,t_acc.
1989-08-26T09:00:24.580 ,3,0,0.,4.8,0.,4.8,0.,4.8,0.,4.8
1989-08-26T09:00:29.380 ,3,0,0.,4.8,1.,4.8,0.,4.8,0.,4.8
1989-08-26T09:00:34.180 ,3,0,0.,4.8,0.,4.8,0.,4.8,0.,4.8
1989-08-26T09:00:38.980 ,3,0,0.,4.8,0.,4.8,0.,4.8,0.,4.8
1989-08-26T09:00:43.780 ,3,0,0.,4.8,0.,4.8,1.,4.8,0.,4.8
1989-08-26T09:00:48.580 ,2,0,0.,4.8,0.,4.8,0.,4.8,0.,4.8
1989-08-26T09:00:53.380 ,2,0,0.,4.8,0.,4.8,0.,4.8,0.,4.8
1989-08-26T09:00:58.180 ,2,0,0.,4.8,0.,4.8,0.,4.8,0.,4.8
1989-08-26T09:01:02.980 ,2,0,0.,4.8,1.,4.8,0.,4.8,0.,4.8
1989-08-26T09:01:07.780 ,2,0,0.,4.8,0.,4.8,0.,4.8,0.,4.8
1989-08-26T09:01:12.580 ,2,0,0.,4.8,0.,4.8,0.,4.8,0.,4.8
1989-08-26T09:01:17.380 ,2,0,0.,4.8,0.,4.8,0.,4.8,0.,4.8
1989-08-26T09:01:22.180 ,2,0,0.,4.8,0.,4.8,1.,4.8,0.,4.8
1989-08-26T09:01:26.980 ,2,0,0.,4.8,2.,4.8,0.,4.8,0.,4.8
1989-08-26T09:01:31.780 ,2,0,0.,4.8,1.,4.8,0.,4.8,0.,4.8
1989-08-26T09:01:36.580 ,1,0,0.,4.8,1.,4.8,1.,4.8,0.,4.8
1989-08-26T09:01:41.380 ,1,0,0.,4.8,0.,4.8,1.,4.8,0.,4.8
1989-08-26T09:01:46.180 ,1,0,0.,4.8,0.,4.8,0.,4.8,0.,4.8
1989-08-26T09:01:50.980 ,1,0,0.,4.8,0.,4.8,0.,4.8,0.,4.8
1989-08-26T09:01:55.780 ,1,0,0.,4.8,0.,4.8,0.,4.8,0.,4.8
1989-08-26T09:02:00.580 ,1,0,0.,4.8,3.,4.8,0.,4.8,0.,4.8
1989-08-26T09:02:05.380 ,1,0,0.,4.8,0.,4.8,0.,4.8,0.,4.8
1989-08-26T09:02:10.180 ,1,0,0.,4.8,1.,4.8,0.,4.8,0.,4.8
1989-08-26T09:02:14.980 ,1,0,0.,4.8,0.,4.8,0.,4.8,0.,4.8
1989-08-26T09:02:19.780 ,1,0,0.,4.8,0.,4.8,0.,4.8,0.,4.8
1989-08-26T09:02:24.580 ,0,0,0.,4.8,1.,4.8,0.,4.8,0.,4.8
1989-08-26T09:02:29.380 ,0,0,0.,4.8,1.,4.8,0.,4.8,0.,4.8
1989-08-26T09:02:34.180 ,0,0,0.,4.8,3.,4.8,0.,4.8,0.,4.8
1989-08-26T09:02:38.980 ,0,0,0.,4.8,1.,4.8,0.,4.8,0.,4.8
1989-08-26T09:02:43.780 ,0,0,0.,4.8,2.,4.8,0.,4.8,0.,4.8
1989-08-26T09:02:48.580 ,0,0,0.,4.8,1.,4.8,0.,4.8,0.,4.8
1989-08-26T09:02:53.380 ,0,0,0.,4.8,0.,4.8,0.,4.8,0.,4.8
1989-08-26T09:02:58.180 ,0,0,0.,4.8,1.,4.8,1.,4.8,0.,4.8
1989-08-26T09:03:02.980 ,0,0,0.,4.8,0.,4.8,0.,4.8,0.,4.8
1989-08-26T09:03:07.780 ,0,0,0.,4.8,0.,4.8,0.,4.8,0.,4.8
1989-08-26T09:03:12.580 ,0,0,0.,4.8,1.,4.8,0.,4.8,0.,4.8
1989-08-26T09:03:17.380 ,0,0,0.,4.8,0.,4.8,0.,4.8,0.,4.8
1989-08-26T09:03:22.180 ,0,0,0.,4.8,0.,4.8,0.,4.8,0.,4.8
1989-08-26T09:03:26.980 ,0,0,0.,4.8,1.,4.8,0.,4.8,0.,4.8
1989-08-26T09:03:31.780 ,0,0,0.,4.8,0.,4.8,0.,4.8,0.,4.8
1989-08-26T09:03:36.580 ,0,0,0.,4.8,1.,4.8,0.,4.8,0.,4.8
1989-08-26T09:03:41.380 ,0,0,0.,4.8,0.,4.8,0.,4.8,0.,4.8
1989-08-26T09:03:46.180 ,0,0,0.,4.8,1.,4.8,0.,4.8,0.,4.8
1989-08-26T09:03:50.980 ,0,0,0.,4.8,0.,4.8,0.,4.8,0.,4.8
1989-08-26T09:03:55.780 ,0,0,0.,4.8,0.,4.8,0.,4.8,0.,4.8
1989-08-26T09:04:00.580 ,1,0,0.,4.8,3.,4.8,0.,4.8,0.,4.8
1989-08-26T09:04:05.380 ,1,0,0.,4.8,0.,4.8,0.,4.8,0.,4.8
1989-08-26T09:04:10.180 ,1,0,0.,4.8,0.,4.8,0.,4.8,0.,4.8
1989-08-26T09:04:14.980 ,1,0,0.,4.8,0.,4.8,0.,4.8,1.,4.8
1989-08-26T09:04:19.780 ,1,0,0.,4.8,0.,4.8,0.,4.8,0.,4.8
1989-08-26T09:04:24.580 ,1,0,0.,4.8,1.,4.8,1.,4.8,0.,4.8
1989-08-26T09:04:29.380 ,1,0,0.,4.8,1.,4.8,0.,4.8,0.,4.8
1989-08-26T09:04:34.180 ,1,0,0.,4.8,2.,4.8,0.,4.8,0.,4.8
1989-08-26T09:04:38.980 ,1,0,0.,4.8,1.,4.8,0.,4.8,0.,4.8
1989-08-26T09:04:43.780 ,1,0,0.,4.8,1.,4.8,0.,4.8,0.,4.8
1989-08-26T09:04:48.580 ,2,0,0.,4.8,1.,4.8,1.,4.8,0.,4.8
1989-08-26T09:04:53.380 ,2,0,0.,4.8,0.,4.8,0.,4.8,0.,4.8
1989-08-26T09:04:58.180 ,2,0,0.,4.8,0.,4.8,0.,4.8,0.,4.8
1989-08-26T09:05:02.980 ,2,0,0.,4.8,3.,4.8,0.,4.8,0.,4.8
1989-08-26T09:05:07.780 ,2,0,0.,4.8,0.,4.8,0.,4.8,0.,4.8
1989-08-26T09:05:12.580 ,2,0,0.,4.8,1.,4.8,0.,4.8,0.,4.8
1989-08-26T09:05:17.380 ,2,0,0.,4.8,0.,4.8,0.,4.8,1.,4.8
1989-08-26T09:05:22.180 ,2,0,0.,4.8,0.,4.8,0.,4.8,0.,4.8
1989-08-26T09:05:26.980 ,2,0,0.,4.8,1.,4.8,0.,4.8,0.,4.8
1989-08-26T09:05:31.780 ,2,0,0.,4.8,2.,4.8,0.,4.8,0.,4.8
1989-08-26T09:05:36.580 ,3,0,0.,4.8,0.,4.8,1.,4.8,0.,4.8
1989-08-26T09:05:41.380 ,3,0,0.,4.8,0.,4.8,0.,4.8,0.,4.8
1989-08-26T09:05:46.180 ,3,0,0.,4.8,0.,4.8,0.,4.8,0.,4.8
1989-08-26T09:05:50.980 ,3,0,0.,4.8,2.,4.8,0.,4.8,0.,4.8
1989-08-26T09:05:55.780 ,3,0,0.,4.8,0.,4.8,0.,4.8,0.,4.8
1989-08-26T09:06:00.580 ,3,0,0.,4.8,0.,4.8,0.,4.8,0.,4.8
1989-08-26T09:06:05.380 ,3,0,0.,4.8,1.,4.8,0.,4.8,0.,4.8
1989-08-26T09:06:10.180 ,3,0,0.,4.8,0.,4.8,0.,4.8,0.,4.8
1989-08-26T09:06:14.980 ,3,0,0.,4.8,0.,4.8,0.,4.8,0.,4.8
1989-08-26T09:06:19.780 ,3,0,0.,4.8,0.,4.8,0.,4.8,0.,4.8
1989-08-26T09:06:24.580 ,4,0,0.,4.8,0.,4.8,0.,4.8,0.,4.8
1989-08-26T09:06:29.380 ,4,0,0.,4.8,0.,4.8,0.,4.8,0.,4.8
1989-08-26T09:06:34.180 ,4,0,0.,4.8,1.,4.8,0.,4.8,2.,4.8
1989-08-26T09:06:38.980 ,4,0,0.,4.8,1.,4.8,0.,4.8,0.,4.8
1989-08-26T09:06:43.780 ,4,0,0.,4.8,1.,4.8,0.,4.8,0.,4.8
1989-08-26T09:06:48.580 ,4,0,0.,4.8,0.,4.8,0.,4.8,0.,4.8
1989-08-26T09:06:53.380 ,4,0,0.,4.8,1.,4.8,0.,4.8,0.,4.8
1989-08-26T09:06:58.180 ,4,0,0.,4.8,0.,4.8,0.,4.8,0.,4.8
1989-08-26T09:07:02.980 ,4,0,0.,4.8,0.,4.8,0.,4.8,0.,4.8
1989-08-26T09:07:07.780 ,4,0,0.,4.8,0.,4.8,0.,4.8,0.,4.8
1989-08-26T09:07:12.580 ,5,0,0.,4.8,1.,4.8,0.,4.8,0.,4.8
1989-08-26T09:07:17.380 ,5,0,0.,4.8,0.,4.8,0.,4.8,0.,4.8
1989-08-26T09:07:22.180 ,5,0,0.,4.8,0.,4.8,0.,4.8,0.,4.8
1989-08-26T09:07:26.980 ,5,0,0.,4.8,1.,4.8,0.,4.8,0.,4.8
1989-08-26T09:07:31.780 ,5,0,0.,4.8,0.,4.8,0.,4.8,0.,4.8
1989-08-26T09:07:36.580 ,5,0,0.,4.8,0.,4.8,0.,4.8,0.,4.8
1989-08-26T09:07:41.380 ,5,0,0.,4.8,2.,4.8,0.,4.8,0.,4.8
1989-08-26T09:07:46.180 ,5,0,0.,4.8,0.,4.8,0.,4.8,0.,4.8
1989-08-26T09:07:50.980 ,5,0,0.,4.8,0.,4.8,1.,4.8,0.,4.8
1989-08-26T09:07:55.780 ,5,0,0.,4.8,1.,4.8,0.,4.8,0.,4.8
1989-08-26T09:08:00.580 ,6,0,0.,4.8,0.,4.8,0.,4.8,0.,4.8
1989-08-26T09:08:05.380 ,6,0,0.,4.8,0.,4.8,0.,4.8,0.,4.8
1989-08-26T09:08:10.180 ,6,0,0.,4.8,0.,4.8,0.,4.8,0.,4.8
1989-08-26T09:08:14.980 ,6,0,0.,4.8,0.,4.8,0.,4.8,0.,4.8
1989-08-26T09:08:19.780 ,6,0,0.,4.8,3.,4.8,0.,4.8,0.,4.8
1989-08-26T09:08:24.580 ,6,0,0.,4.8,0.,4.8,0.,4.8,0.,4.8
1989-08-26T09:08:29.380 ,6,0,0.,4.8,0.,4.8,0.,4.8,0.,4.8
1989-08-26T09:08:34.180 ,6,0,0.,4.8,1.,4.8,0.,4.8,0.,4.8
1989-08-26T09:08:38.980 ,6,0,0.,4.8,0.,4.8,1.,4.8,0.,4.8
1989-08-26T09:08:43.780 ,6,0,0.,4.8,2.,4.8,1.,4.8,0.,4.8
1989-08-26T09:08:48.580 ,7,0,0.,4.8,0.,4.8,0.,4.8,0.,4.8
1989-08-26T09:08:53.380 ,7,0,0.,4.8,0.,4.8,1.,4.8,0.,4.8
1989-08-26T09:08:58.170 ,7,0,0.,4.8,1.,4.8,0.,4.8,0.,4.8
1989-08-26T09:09:02.970 ,7,0,0.,4.8,0.,4.8,0.,4.8,0.,4.8
1989-08-26T09:09:07.780 ,7,0,0.,4.8,0.,4.8,0.,4.8,0.,4.8
1989-08-26T09:09:12.580 ,7,0,0.,4.8,0.,4.8,0.,4.8,0.,4.8
1989-08-26T09:09:17.380 ,7,0,0.,4.8,0.,4.8,0.,4.8,0.,4.8
1989-08-26T09:09:22.170 ,7,0,0.,4.8,1.,4.8,0.,4.8,1.,4.8
1989-08-26T09:09:26.970 ,7,0,0.,4.8,0.,4.8,0.,4.8,0.,4.8
1989-08-26T09:09:31.780 ,7,0,0.,4.8,0.,4.8,1.,4.8,0.,4.8
1989-08-26T09:09:36.580 ,7,0,0.,4.8,0.,4.8,0.,4.8,0.,4.8
1989-08-26T09:09:41.380 ,7,0,0.,4.8,2.,4.8,0.,4.8,0.,4.8
1989-08-26T09:09:46.170 ,7,0,0.,4.8,0.,4.8,1.,4.8,0.,4.8
1989-08-26T09:09:50.970 ,7,0,0.,4.8,0.,4.8,0.,4.8,0.,4.8
1989-08-26T09:09:55.780 ,7,0,0.,4.8,1.,4.8,0.,4.8,0.,4.8
1989-08-26T09:10:00.580 ,7,0,0.,4.8,0.,4.8,0.,4.8,0.,4.8
1989-08-26T09:10:05.380 ,7,0,0.,4.8,2.,4.8,1.,4.8,0.,4.8
1989-08-26T09:10:10.170 ,7,0,0.,4.8,0.,4.8,2.,4.8,1.,4.8
1989-08-26T09:10:14.970 ,7,0,0.,4.8,0.,4.8,0.,4.8,0.,4.8
1989-08-26T09:10:19.780 ,7,0,0.,4.8,2.,4.8,0.,4.8,0.,4.8
1989-08-26T09:10:24.580 ,6,0,0.,4.8,1.,4.8,0.,4.8,0.,4.8
1989-08-26T09:10:29.380 ,6,0,0.,4.8,0.,4.8,0.,4.8,0.,4.8
1989-08-26T09:10:34.170 ,6,0,0.,4.8,1.,4.8,0.,4.8,0.,4.8
1989-08-26T09:10:38.970 ,6,0,0.,4.8,0.,4.8,1.,4.8,0.,4.8
1989-08-26T09:10:43.780 ,6,0,0.,4.8,0.,4.8,0.,4.8,0.,4.8
1989-08-26T09:10:48.580 ,6,0,0.,4.8,0.,4.8,0.,4.8,0.,4.8
1989-08-26T09:10:53.380 ,6,0,0.,4.8,0.,4.8,0.,4.8,0.,4.8
1989-08-26T09:10:58.170 ,6,0,0.,4.8,2.,4.8,0.,4.8,0.,4.8
1989-08-26T09:11:02.970 ,6,0,0.,4.8,0.,4.8,0.,4.8,0.,4.8
1989-08-26T09:11:07.780 ,6,0,0.,4.8,0.,4.8,0.,4.8,0.,4.8
1989-08-26T09:11:12.580 ,5,0,0.,4.8,0.,4.8,0.,4.8,0.,4.8
1989-08-26T09:11:17.380 ,5,0,0.,4.8,2.,4.8,0.,4.8,0.,4.8
1989-08-26T09:11:22.170 ,5,0,0.,4.8,2.,4.8,0.,4.8,0.,4.8
1989-08-26T09:11:26.970 ,5,0,0.,4.8,2.,4.8,0.,4.8,0.,4.8
1989-08-26T09:11:31.780 ,5,0,0.,4.8,1.,4.8,0.,4.8,0.,4.8
1989-08-26T09:11:36.580 ,5,0,0.,4.8,1.,4.8,0.,4.8,0.,4.8
1989-08-26T09:11:41.380 ,5,0,0.,4.8,0.,4.8,0.,4.8,0.,4.8
1989-08-26T09:11:46.170 ,5,0,0.,4.8,1.,4.8,0.,4.8,0.,4.8
1989-08-26T09:11:50.970 ,5,0,0.,4.8,1.,4.8,0.,4.8,0.,4.8
1989-08-26T09:11:55.780 ,5,0,0.,4.8,1.,4.8,0.,4.8,0.,4.8
1989-08-26T09:12:00.580 ,4,0,0.,4.8,0.,4.8,0.,4.8,0.,4.8
1989-08-26T09:12:05.380 ,4,0,0.,4.8,0.,4.8,0.,4.8,0.,4.8
1989-08-26T09:12:10.170 ,4,0,0.,4.8,0.,4.8,0.,4.8,0.,4.8
1989-08-26T09:12:14.970 ,4,0,0.,4.8,0.,4.8,1.,4.8,0.,4.8
1989-08-26T09:12:19.780 ,4,0,0.,4.8,1.,4.8,1.,4.8,0.,4.8
1989-08-26T09:12:24.580 ,4,0,0.,4.8,0.,4.8,0.,4.8,0.,4.8
1989-08-26T09:12:29.380 ,4,0,0.,4.8,1.,4.8,0.,4.8,0.,4.8
1989-08-26T09:12:34.170 ,4,0,0.,4.8,1.,4.8,0.,4.8,0.,4.8
1989-08-26T09:12:38.970 ,4,0,0.,4.8,1.,4.8,0.,4.8,0.,4.8
1989-08-26T09:12:43.780 ,4,0,0.,4.8,0.,4.8,0.,4.8,0.,4.8
1989-08-26T09:12:48.580 ,3,0,0.,4.8,2.,4.8,0.,4.8,0.,4.8
1989-08-26T09:12:53.380 ,3,0,0.,4.8,0.,4.8,0.,4.8,1.,4.8
1989-08-26T09:12:58.170 ,3,0,0.,4.8,1.,4.8,0.,4.8,0.,4.8
1989-08-26T09:13:02.970 ,3,0,0.,4.8,0.,4.8,0.,4.8,1.,4.8
1989-08-26T09:13:07.780 ,3,0,0.,4.8,3.,4.8,0.,4.8,0.,4.8
1989-08-26T09:13:12.580 ,3,0,0.,4.8,1.,4.8,0.,4.8,0.,4.8
1989-08-26T09:13:17.380 ,3,0,0.,4.8,0.,4.8,0.,4.8,0.,4.8
1989-08-26T09:13:22.170 ,3,0,0.,4.8,1.,4.8,0.,4.8,0.,4.8
1989-08-26T09:13:26.970 ,3,0,0.,4.8,0.,4.8,0.,4.8,0.,4.8
1989-08-26T09:13:31.780 ,3,0,0.,4.8,0.,4.8,0.,4.8,0.,4.8
1989-08-26T09:13:36.580 ,2,0,0.,4.8,0.,4.8,0.,4.8,1.,4.8
1989-08-26T09:13:41.380 ,2,0,0.,4.8,0.,4.8,0.,4.8,0.,4.8
1989-08-26T09:13:46.170 ,2,0,0.,4.8,0.,4.8,0.,4.8,0.,4.8
1989-08-26T09:13:50.970 ,2,0,0.,4.8,1.,4.8,0.,4.8,0.,4.8
1989-08-26T09:13:55.780 ,2,0,0.,4.8,0.,4.8,0.,4.8,0.,4.8
1989-08-26T09:14:00.580 ,2,0,0.,4.8,0.,4.8,0.,4.8,0.,4.8
1989-08-26T09:14:05.380 ,2,0,0.,4.8,1.,4.8,0.,4.8,0.,4.8
1989-08-26T09:14:10.170 ,2,0,0.,4.8,0.,4.8,0.,4.8,0.,4.8
1989-08-26T09:14:14.970 ,2,0,0.,4.8,2.,4.8,0.,4.8,1.,4.8
1989-08-26T09:14:19.780 ,2,0,0.,4.8,0.,4.8,0.,4.8,1.,4.8
1989-08-26T09:14:24.580 ,1,0,0.,4.8,0.,4.8,0.,4.8,0.,4.8
1989-08-26T09:14:29.380 ,1,0,0.,4.8,0.,4.8,0.,4.8,0.,4.8
1989-08-26T09:14:34.170 ,1,0,0.,4.8,0.,4.8,0.,4.8,0.,4.8
1989-08-26T09:14:38.970 ,1,0,0.,4.8,0.,4.8,0.,4.8,0.,4.8
1989-08-26T09:14:43.780 ,1,0,0.,4.8,0.,4.8,0.,4.8,0.,4.8
1989-08-26T09:14:48.580 ,1,0,0.,4.8,2.,4.8,0.,4.8,0.,4.8
1989-08-26T09:14:53.380 ,1,0,0.,4.8,1.,4.8,0.,4.8,0.,4.8
1989-08-26T09:14:58.170 ,1,0,0.,4.8,0.,4.8,0.,4.8,0.,4.8
1989-08-26T09:15:02.970 ,1,0,0.,4.8,0.,4.8,0.,4.8,0.,4.8
1989-08-26T09:15:07.780 ,1,0,0.,4.8,0.,4.8,0.,4.8,0.,4.8
1989-08-26T09:15:12.580 ,0,0,0.,4.8,0.,4.8,0.,4.8,0.,4.8
1989-08-26T09:15:17.380 ,0,0,0.,4.8,0.,4.8,0.,4.8,0.,4.8
1989-08-26T09:15:22.170 ,0,0,0.,4.8,2.,4.8,0.,4.8,0.,4.8
1989-08-26T09:15:26.970 ,0,0,0.,4.8,1.,4.8,0.,4.8,0.,4.8
1989-08-26T09:15:31.780 ,0,0,0.,4.8,0.,4.8,0.,4.8,0.,4.8
1989-08-26T09:15:36.580 ,0,0,0.,4.8,1.,4.8,0.,4.8,0.,4.8
1989-08-26T09:15:41.380 ,0,0,0.,4.8,0.,4.8,0.,4.8,1.,4.8
1989-08-26T09:15:46.170 ,0,0,0.,4.8,0.,4.8,1.,4.8,0.,4.8
1989-08-26T09:15:50.970 ,0,0,0.,4.8,0.,4.8,0.,4.8,0.,4.8
1989-08-26T09:15:55.780 ,0,0,0.,4.8,0.,4.8,0.,4.8,0.,4.8
1989-08-26T09:16:00.580 ,0,0,0.,4.8,0.,4.8,0.,4.8,1.,4.8
1989-08-26T09:16:05.380 ,0,0,0.,4.8,0.,4.8,0.,4.8,0.,4.8
1989-08-26T09:16:10.170 ,0,0,0.,4.8,0.,4.8,0.,4.8,0.,4.8
1989-08-26T09:16:14.970 ,0,0,0.,4.8,1.,4.8,0.,4.8,0.,4.8
1989-08-26T09:16:19.780 ,0,0,0.,4.8,1.,4.8,0.,4.8,0.,4.8
1989-08-26T09:16:24.580 ,0,0,0.,4.8,0.,4.8,0.,4.8,0.,4.8
1989-08-26T09:16:29.380 ,0,0,0.,4.8,0.,4.8,0.,4.8,0.,4.8
1989-08-26T09:16:34.170 ,0,0,0.,4.8,1.,4.8,0.,4.8,0.,4.8
1989-08-26T09:16:38.970 ,0,0,0.,4.8,1.,4.8,0.,4.8,0.,4.8
1989-08-26T09:16:43.780 ,0,0,0.,4.8,2.,4.8,1.,4.8,0.,4.8
1989-08-26T09:16:48.580 ,1,0,0.,4.8,0.,4.8,0.,4.8,0.,4.8
1989-08-26T09:16:53.380 ,1,0,0.,4.8,0.,4.8,0.,4.8,1.,4.8
1989-08-26T09:16:58.170 ,1,0,0.,4.8,0.,4.8,0.,4.8,0.,4.8
1989-08-26T09:17:02.970 ,1,0,0.,4.8,0.,4.8,0.,4.8,0.,4.8
1989-08-26T09:17:07.780 ,1,0,0.,4.8,0.,4.8,0.,4.8,0.,4.8
1989-08-26T09:17:12.580 ,1,0,0.,4.8,1.,4.8,0.,4.8,0.,4.8
1989-08-26T09:17:17.380 ,1,0,0.,4.8,0.,4.8,0.,4.8,0.,4.8
1989-08-26T09:17:22.180 ,1,0,0.,4.8,0.,4.8,0.,4.8,0.,4.8
1989-08-26T09:17:26.980 ,1,0,0.,4.8,2.,4.8,1.,4.8,0.,4.8
1989-08-26T09:17:31.780 ,1,0,0.,4.8,1.,4.8,0.,4.8,1.,4.8
1989-08-26T09:17:36.580 ,2,0,0.,4.8,1.,4.8,0.,4.8,0.,4.8
1989-08-26T09:17:41.380 ,2,0,0.,4.8,2.,4.8,0.,4.8,0.,4.8
1989-08-26T09:17:46.180 ,2,0,0.,4.8,1.,4.8,0.,4.8,0.,4.8
1989-08-26T09:17:50.980 ,2,0,0.,4.8,1.,4.8,0.,4.8,0.,4.8
1989-08-26T09:17:55.780 ,2,0,0.,4.8,0.,4.8,0.,4.8,0.,4.8
1989-08-26T09:18:00.580 ,2,0,0.,4.8,0.,4.8,0.,4.8,0.,4.8
1989-08-26T09:18:05.380 ,2,0,0.,4.8,1.,4.8,0.,4.8,0.,4.8
1989-08-26T09:18:10.180 ,2,0,0.,4.8,1.,4.8,0.,4.8,0.,4.8
1989-08-26T09:18:14.980 ,2,0,0.,4.8,1.,4.8,0.,4.8,0.,4.8
1989-08-26T09:18:19.780 ,2,0,0.,4.8,0.,4.8,0.,4.8,0.,4.8
1989-08-26T09:18:24.580 ,3,0,0.,4.8,0.,4.8,0.,4.8,0.,4.8
1989-08-26T09:18:29.380 ,3,0,0.,4.8,1.,4.8,0.,4.8,0.,4.8
1989-08-26T09:18:34.180 ,3,0,0.,4.8,1.,4.8,1.,4.8,0.,4.8
1989-08-26T09:18:38.980 ,3,0,0.,4.8,1.,4.8,0.,4.8,0.,4.8
1989-08-26T09:18:43.780 ,3,0,0.,4.8,0.,4.8,0.,4.8,0.,4.8
1989-08-26T09:18:48.580 ,3,0,0.,4.8,0.,4.8,0.,4.8,0.,4.8
1989-08-26T09:18:53.380 ,3,0,0.,4.8,1.,4.8,0.,4.8,0.,4.8
1989-08-26T09:18:58.180 ,3,0,0.,4.8,1.,4.8,0.,4.8,0.,4.8
1989-08-26T09:19:02.980 ,3,0,0.,4.8,2.,4.8,0.,4.8,0.,4.8
1989-08-26T09:19:07.780 ,3,0,0.,4.8,0.,4.8,0.,4.8,0.,4.8
1989-08-26T09:19:12.580 ,4,0,0.,4.8,0.,4.8,0.,4.8,1.,4.8
1989-08-26T09:19:17.380 ,4,0,0.,4.8,2.,4.8,0.,4.8,0.,4.8
1989-08-26T09:19:22.180 ,4,0,0.,4.8,0.,4.8,0.,4.8,0.,4.8
1989-08-26T09:19:26.980 ,4,0,0.,4.8,0.,4.8,0.,4.8,0.,4.8
1989-08-26T09:19:31.780 ,4,0,0.,4.8,5.,4.8,0.,4.8,0.,4.8
1989-08-26T09:19:36.580 ,4,0,0.,4.8,1.,4.8,0.,4.8,0.,4.8
1989-08-26T09:19:41.380 ,4,0,0.,4.8,1.,4.8,2.,4.8,0.,4.8
1989-08-26T09:19:46.180 ,4,0,0.,4.8,1.,4.8,0.,4.8,0.,4.8
1989-08-26T09:19:50.980 ,4,0,0.,4.8,0.,4.8,0.,4.8,0.,4.8
1989-08-26T09:19:55.780 ,4,0,0.,4.8,1.,4.8,0.,4.8,0.,4.8
1989-08-26T09:20:00.580 ,5,0,0.,4.8,1.,4.8,0.,4.8,0.,4.8
1989-08-26T09:20:05.380 ,5,0,0.,4.8,0.,4.8,0.,4.8,0.,4.8
1989-08-26T09:20:10.180 ,5,0,0.,4.8,0.,4.8,0.,4.8,0.,4.8
1989-08-26T09:20:14.980 ,5,0,0.,4.8,1.,4.8,0.,4.8,0.,4.8
1989-08-26T09:20:19.780 ,5,0,0.,4.8,0.,4.8,1.,4.8,0.,4.8
1989-08-26T09:20:24.580 ,5,0,0.,4.8,0.,4.8,0.,4.8,0.,4.8
1989-08-26T09:20:29.380 ,5,0,0.,4.8,0.,4.8,0.,4.8,0.,4.8
1989-08-26T09:20:34.180 ,5,0,0.,4.8,0.,4.8,0.,4.8,0.,4.8
1989-08-26T09:20:38.980 ,5,0,0.,4.8,2.,4.8,0.,4.8,0.,4.8
1989-08-26T09:20:43.780 ,5,0,0.,4.8,1.,4.8,0.,4.8,0.,4.8
1989-08-26T09:20:48.580 ,6,0,0.,4.8,0.,4.8,0.,4.8,0.,4.8
1989-08-26T09:20:53.380 ,6,0,0.,4.8,0.,4.8,0.,4.8,0.,4.8
1989-08-26T09:20:58.180 ,6,0,0.,4.8,0.,4.8,0.,4.8,0.,4.8
1989-08-26T09:21:02.980 ,6,0,0.,4.8,0.,4.8,0.,4.8,0.,4.8
1989-08-26T09:21:07.780 ,6,0,0.,4.8,0.,4.8,0.,4.8,1.,4.8
1989-08-26T09:21:12.580 ,6,0,0.,4.8,1.,4.8,0.,4.8,0.,4.8
1989-08-26T09:21:17.380 ,6,0,0.,4.8,0.,4.8,0.,4.8,0.,4.8
1989-08-26T09:21:22.180 ,6,0,0.,4.8,1.,4.8,0.,4.8,0.,4.8
1989-08-26T09:21:26.980 ,6,0,0.,4.8,1.,4.8,0.,4.8,0.,4.8
1989-08-26T09:21:31.780 ,6,0,0.,4.8,0.,4.8,0.,4.8,0.,4.8
1989-08-26T09:21:36.570 ,7,0,0.,4.8,0.,4.8,1.,4.8,0.,4.8
1989-08-26T09:21:41.370 ,7,0,0.,4.8,0.,4.8,0.,4.8,0.,4.8
1989-08-26T09:21:46.170 ,7,0,0.,4.8,2.,4.8,0.,4.8,0.,4.8
1989-08-26T09:21:50.970 ,7,0,0.,4.8,0.,4.8,0.,4.8,0.,4.8
1989-08-26T09:21:55.770 ,7,0,0.,4.8,0.,4.8,0.,4.8,1.,4.8
1989-08-26T09:22:00.570 ,7,0,0.,4.8,0.,4.8,0.,4.8,1.,4.8
1989-08-26T09:22:05.370 ,7,0,0.,4.8,2.,4.8,0.,4.8,0.,4.8
1989-08-26T09:22:10.170 ,7,0,0.,4.8,2.,4.8,0.,4.8,0.,4.8
1989-08-26T09:22:14.970 ,7,0,0.,4.8,0.,4.8,0.,4.8,1.,4.8
1989-08-26T09:22:19.770 ,7,0,0.,4.8,0.,4.8,0.,4.8,0.,4.8
1989-08-26T09:22:24.570 ,7,0,0.,4.8,0.,4.8,1.,4.8,0.,4.8
1989-08-26T09:22:29.370 ,7,0,0.,4.8,0.,4.8,0.,4.8,0.,4.8
1989-08-26T09:22:34.170 ,7,0,0.,4.8,1.,4.8,0.,4.8,0.,4.8
1989-08-26T09:22:38.970 ,7,0,0.,4.8,2.,4.8,0.,4.8,0.,4.8
1989-08-26T09:22:43.770 ,7,0,0.,4.8,0.,4.8,2.,4.8,0.,4.8
1989-08-26T09:22:48.570 ,7,0,0.,4.8,0.,4.8,0.,4.8,0.,4.8
1989-08-26T09:22:53.370 ,7,0,0.,4.8,0.,4.8,0.,4.8,0.,4.8
1989-08-26T09:22:58.170 ,7,0,0.,4.8,4.,4.8,0.,4.8,0.,4.8
1989-08-26T09:23:02.970 ,7,0,0.,4.8,1.,4.8,0.,4.8,1.,4.8
1989-08-26T09:23:07.770 ,7,0,0.,4.8,1.,4.8,0.,4.8,0.,4.8
1989-08-26T09:23:12.570 ,6,0,0.,4.8,1.,4.8,0.,4.8,0.,4.8
1989-08-26T09:23:17.370 ,6,0,0.,4.8,1.,4.8,0.,4.8,0.,4.8
1989-08-26T09:23:22.170 ,6,0,0.,4.8,1.,4.8,0.,4.8,0.,4.8
1989-08-26T09:23:26.970 ,6,0,0.,4.8,0.,4.8,0.,4.8,0.,4.8
1989-08-26T09:23:31.770 ,6,0,0.,4.8,1.,4.8,0.,4.8,0.,4.8
1989-08-26T09:23:36.570 ,6,0,0.,4.8,1.,4.8,0.,4.8,0.,4.8
1989-08-26T09:23:41.370 ,6,0,0.,4.8,1.,4.8,0.,4.8,0.,4.8
1989-08-26T09:23:46.170 ,6,0,0.,4.8,0.,4.8,0.,4.8,1.,4.8
1989-08-26T09:23:50.970 ,6,0,0.,4.8,1.,4.8,0.,4.8,0.,4.8
1989-08-26T09:23:55.770 ,6,0,0.,4.8,2.,4.8,0.,4.8,0.,4.8
1989-08-26T09:24:00.570 ,5,0,0.,4.8,0.,4.8,0.,4.8,0.,4.8
1989-08-26T09:24:05.370 ,5,0,0.,4.8,0.,4.8,1.,4.8,0.,4.8
1989-08-26T09:24:10.170 ,5,0,0.,4.8,0.,4.8,1.,4.8,0.,4.8
1989-08-26T09:24:14.970 ,5,0,0.,4.8,1.,4.8,0.,4.8,1.,4.8
1989-08-26T09:24:19.770 ,5,0,0.,4.8,1.,4.8,0.,4.8,0.,4.8
1989-08-26T09:24:24.570 ,5,0,0.,4.8,0.,4.8,0.,4.8,0.,4.8
1989-08-26T09:24:29.370 ,5,0,0.,4.8,0.,4.8,0.,4.8,0.,4.8
1989-08-26T09:24:34.170 ,5,0,0.,4.8,1.,4.8,0.,4.8,0.,4.8
1989-08-26T09:24:38.970 ,5,0,0.,4.8,0.,4.8,0.,4.8,0.,4.8
1989-08-26T09:24:43.770 ,5,0,0.,4.8,0.,4.8,0.,4.8,0.,4.8
1989-08-26T09:24:48.570 ,4,0,0.,4.8,0.,4.8,0.,4.8,1.,4.8
1989-08-26T09:24:53.370 ,4,0,0.,4.8,0.,4.8,1.,4.8,0.,4.8
1989-08-26T09:24:58.170 ,4,0,0.,4.8,0.,4.8,0.,4.8,0.,4.8
1989-08-26T09:25:02.970 ,4,0,0.,4.8,0.,4.8,0.,4.8,0.,4.8
1989-08-26T09:25:07.770 ,4,0,0.,4.8,0.,4.8,0.,4.8,0.,4.8
1989-08-26T09:25:12.570 ,4,0,0.,4.8,1.,4.8,0.,4.8,0.,4.8
1989-08-26T09:25:17.370 ,4,0,0.,4.8,0.,4.8,0.,4.8,0.,4.8
1989-08-26T09:25:22.170 ,4,0,0.,4.8,1.,4.8,1.,4.8,0.,4.8
1989-08-26T09:25:26.970 ,4,0,0.,4.8,1.,4.8,0.,4.8,0.,4.8
1989-08-26T09:25:31.770 ,4,0,0.,4.8,2.,4.8,0.,4.8,0.,4.8
1989-08-26T09:25:36.570 ,3,0,0.,4.8,0.,4.8,0.,4.8,0.,4.8
1989-08-26T09:25:41.370 ,3,0,0.,4.8,1.,4.8,0.,4.8,0.,4.8
1989-08-26T09:25:46.170 ,3,0,0.,4.8,0.,4.8,0.,4.8,0.,4.8
1989-08-26T09:25:50.970 ,3,0,0.,4.8,1.,4.8,0.,4.8,0.,4.8
1989-08-26T09:25:55.770 ,3,0,0.,4.8,2.,4.8,0.,4.8,0.,4.8
1989-08-26T09:26:00.570 ,3,0,0.,4.8,0.,4.8,0.,4.8,0.,4.8
1989-08-26T09:26:05.370 ,3,0,0.,4.8,1.,4.8,0.,4.8,0.,4.8
1989-08-26T09:26:10.170 ,3,0,0.,4.8,0.,4.8,0.,4.8,0.,4.8
1989-08-26T09:26:14.970 ,3,0,0.,4.8,1.,4.8,0.,4.8,0.,4.8
1989-08-26T09:26:19.770 ,3,0,0.,4.8,0.,4.8,0.,4.8,0.,4.8
1989-08-26T09:26:24.570 ,2,0,0.,4.8,0.,4.8,1.,4.8,0.,4.8
1989-08-26T09:26:29.370 ,2,0,0.,4.8,1.,4.8,0.,4.8,0.,4.8
1989-08-26T09:26:34.170 ,2,0,0.,4.8,0.,4.8,0.,4.8,0.,4.8
1989-08-26T09:26:38.970 ,2,0,0.,4.8,1.,4.8,0.,4.8,0.,4.8
1989-08-26T09:26:43.770 ,2,0,0.,4.8,1.,4.8,0.,4.8,0.,4.8
1989-08-26T09:26:48.570 ,2,0,0.,4.8,2.,4.8,0.,4.8,0.,4.8
1989-08-26T09:26:53.370 ,2,0,0.,4.8,2.,4.8,1.,4.8,0.,4.8
1989-08-26T09:26:58.170 ,2,0,0.,4.8,0.,4.8,1.,4.8,0.,4.8
1989-08-26T09:27:02.970 ,2,0,0.,4.8,0.,4.8,0.,4.8,0.,4.8
1989-08-26T09:27:07.770 ,2,0,0.,4.8,2.,4.8,0.,4.8,0.,4.8
1989-08-26T09:27:12.570 ,1,0,0.,4.8,0.,4.8,0.,4.8,0.,4.8
1989-08-26T09:27:17.370 ,1,0,0.,4.8,1.,4.8,0.,4.8,0.,4.8
1989-08-26T09:27:22.170 ,1,0,0.,4.8,1.,4.8,0.,4.8,0.,4.8
1989-08-26T09:27:26.970 ,1,0,0.,4.8,1.,4.8,0.,4.8,0.,4.8
1989-08-26T09:27:31.770 ,1,0,0.,4.8,0.,4.8,0.,4.8,0.,4.8
1989-08-26T09:27:36.570 ,1,0,0.,4.8,0.,4.8,0.,4.8,0.,4.8
1989-08-26T09:27:41.370 ,1,0,0.,4.8,2.,4.8,0.,4.8,0.,4.8
1989-08-26T09:27:46.170 ,1,0,0.,4.8,1.,4.8,0.,4.8,0.,4.8
1989-08-26T09:27:50.970 ,1,0,0.,4.8,2.,4.8,0.,4.8,0.,4.8
1989-08-26T09:27:55.770 ,1,0,0.,4.8,0.,4.8,0.,4.8,0.,4.8
1989-08-26T09:28:00.570 ,0,0,0.,4.8,0.,4.8,0.,4.8,0.,4.8
1989-08-26T09:28:05.370 ,0,0,0.,4.8,0.,4.8,0.,4.8,0.,4.8
1989-08-26T09:28:10.170 ,0,0,0.,4.8,4.,4.8,0.,4.8,0.,4.8
1989-08-26T09:28:14.970 ,0,0,0.,4.8,0.,4.8,0.,4.8,0.,4.8
1989-08-26T09:28:19.770 ,0,0,0.,4.8,1.,4.8,0.,4.8,0.,4.8
1989-08-26T09:28:24.570 ,0,0,0.,4.8,0.,4.8,0.,4.8,0.,4.8
1989-08-26T09:28:29.370 ,0,0,0.,4.8,0.,4.8,0.,4.8,0.,4.8
1989-08-26T09:28:34.170 ,0,0,0.,4.8,1.,4.8,0.,4.8,0.,4.8
1989-08-26T09:28:38.970 ,0,0,0.,4.8,0.,4.8,0.,4.8,0.,4.8
1989-08-26T09:28:43.770 ,0,0,0.,4.8,0.,4.8,0.,4.8,0.,4.8
1989-08-26T09:28:48.570 ,0,0,0.,4.8,0.,4.8,1.,4.8,0.,4.8
1989-08-26T09:28:53.370 ,0,0,0.,4.8,1.,4.8,1.,4.8,0.,4.8
1989-08-26T09:28:58.170 ,0,0,0.,4.8,0.,4.8,0.,4.8,0.,4.8
1989-08-26T09:29:02.970 ,0,0,0.,4.8,1.,4.8,0.,4.8,0.,4.8
1989-08-26T09:29:07.770 ,0,0,0.,4.8,0.,4.8,0.,4.8,0.,4.8
1989-08-26T09:29:12.570 ,0,0,0.,4.8,0.,4.8,0.,4.8,0.,4.8
1989-08-26T09:29:17.370 ,0,0,0.,4.8,0.,4.8,0.,4.8,0.,4.8
1989-08-26T09:29:22.170 ,0,0,0.,4.8,1.,4.8,1.,4.8,0.,4.8
1989-08-26T09:29:26.970 ,0,0,0.,4.8,2.,4.8,0.,4.8,0.,4.8
1989-08-26T09:29:31.770 ,0,0,0.,4.8,1.,4.8,0.,4.8,0.,4.8
1989-08-26T09:29:36.570 ,1,0,0.,4.8,1.,4.8,0.,4.8,0.,4.8
1989-08-26T09:29:41.370 ,1,0,0.,4.8,0.,4.8,0.,4.8,0.,4.8
1989-08-26T09:29:46.170 ,1,0,0.,4.8,1.,4.8,0.,4.8,0.,4.8
1989-08-26T09:29:50.970 ,1,0,0.,4.8,1.,4.8,0.,4.8,0.,4.8
1989-08-26T09:29:55.770 ,1,0,0.,4.8,0.,4.8,0.,4.8,0.,4.8
1989-08-26T09:30:00.570 ,1,0,0.,4.8,0.,4.8,1.,4.8,0.,4.8
1989-08-26T09:30:05.370 ,1,0,0.,4.8,2.,4.8,0.,4.8,0.,4.8
1989-08-26T09:30:10.170 ,1,0,0.,4.8,3.,4.8,0.,4.8,0.,4.8
1989-08-26T09:30:14.970 ,1,0,0.,4.8,1.,4.8,0.,4.8,0.,4.8
1989-08-26T09:30:19.770 ,1,0,0.,4.8,0.,4.8,0.,4.8,0.,4.8
1989-08-26T09:30:24.570 ,2,0,0.,4.8,1.,4.8,0.,4.8,0.,4.8
1989-08-26T09:30:29.370 ,2,0,0.,4.8,0.,4.8,0.,4.8,0.,4.8
1989-08-26T09:30:34.170 ,2,0,0.,4.8,0.,4.8,0.,4.8,0.,4.8
1989-08-26T09:30:38.970 ,2,0,0.,4.8,3.,4.8,0.,4.8,0.,4.8
1989-08-26T09:30:43.770 ,2,0,0.,4.8,0.,4.8,0.,4.8,0.,4.8
1989-08-26T09:30:48.570 ,2,0,0.,4.8,2.,4.8,0.,4.8,1.,4.8
1989-08-26T09:30:53.370 ,2,0,0.,4.8,0.,4.8,2.,4.8,0.,4.8
1989-08-26T09:30:58.170 ,2,0,0.,4.8,2.,4.8,0.,4.8,0.,4.8
1989-08-26T09:31:02.970 ,2,0,0.,4.8,0.,4.8,1.,4.8,0.,4.8
1989-08-26T09:31:07.770 ,2,0,0.,4.8,2.,4.8,0.,4.8,0.,4.8
1989-08-26T09:31:12.570 ,3,0,0.,4.8,1.,4.8,0.,4.8,0.,4.8
1989-08-26T09:31:17.370 ,3,0,0.,4.8,0.,4.8,0.,4.8,0.,4.8
1989-08-26T09:31:22.170 ,3,0,0.,4.8,0.,4.8,0.,4.8,0.,4.8
1989-08-26T09:31:26.970 ,3,0,0.,4.8,0.,4.8,0.,4.8,0.,4.8
1989-08-26T09:31:31.770 ,3,0,0.,4.8,0.,4.8,1.,4.8,0.,4.8
1989-08-26T09:31:36.570 ,3,0,0.,4.8,1.,4.8,0.,4.8,0.,4.8
1989-08-26T09:31:41.370 ,3,0,0.,4.8,1.,4.8,0.,4.8,0.,4.8
1989-08-26T09:31:46.170 ,3,0,0.,4.8,1.,4.8,1.,4.8,0.,4.8
1989-08-26T09:31:50.970 ,3,0,0.,4.8,1.,4.8,0.,4.8,0.,4.8
1989-08-26T09:31:55.770 ,3,0,0.,4.8,0.,4.8,0.,4.8,0.,4.8
1989-08-26T09:32:00.570 ,4,0,0.,4.8,0.,4.8,0.,4.8,0.,4.8
1989-08-26T09:32:05.370 ,4,0,0.,4.8,1.,4.8,0.,4.8,1.,4.8
1989-08-26T09:32:10.170 ,4,0,0.,4.8,1.,4.8,0.,4.8,0.,4.8
1989-08-26T09:32:14.970 ,4,0,0.,4.8,3.,4.8,0.,4.8,0.,4.8
1989-08-26T09:32:19.770 ,4,0,0.,4.8,1.,4.8,0.,4.8,0.,4.8
1989-08-26T09:32:24.570 ,4,0,0.,4.8,0.,4.8,0.,4.8,1.,4.8
1989-08-26T09:32:29.370 ,4,0,0.,4.8,1.,4.8,0.,4.8,0.,4.8
1989-08-26T09:32:34.170 ,4,0,0.,4.8,0.,4.8,0.,4.8,0.,4.8
1989-08-26T09:32:38.970 ,4,0,0.,4.8,0.,4.8,0.,4.8,0.,4.8
1989-08-26T09:32:43.770 ,4,0,0.,4.8,0.,4.8,0.,4.8,0.,4.8
1989-08-26T09:32:48.570 ,5,0,0.,4.8,1.,4.8,1.,4.8,0.,4.8
1989-08-26T09:32:53.370 ,5,0,0.,4.8,0.,4.8,0.,4.8,0.,4.8
1989-08-26T09:32:58.170 ,5,0,0.,4.8,1.,4.8,0.,4.8,0.,4.8
1989-08-26T09:33:02.970 ,5,0,0.,4.8,1.,4.8,0.,4.8,0.,4.8
1989-08-26T09:33:07.770 ,5,0,0.,4.8,0.,4.8,0.,4.8,1.,4.8
1989-08-26T09:33:12.570 ,5,0,0.,4.8,1.,4.8,0.,4.8,0.,4.8
1989-08-26T09:33:17.370 ,5,0,0.,4.8,0.,4.8,0.,4.8,0.,4.8